This is the latest recevied weather packets stored in our database for station/object KC9DNQ-3. If no packets are shown the sender has not sent any weather packets the latest 1 day(s).
| Time | Temp. | Humidity | Pressure | Rain* | Wind** | Luminosity | Snow |
|---|---|---|---|---|---|---|---|
| 1778019009 | 12.78° C | 45% | 1008 hPa | 0 mm | 1.34 m/s, 286° | 179 W/m² | - |
| 1778018708 | 12.78° C | 48% | 1008 hPa | 0 mm | 1.34 m/s, 306° | 179 W/m² | - |
| 1778018408 | 12.78° C | 45% | 1008 hPa | 0 mm | 1.34 m/s, 274° | 153 W/m² | - |
| 1778018109 | 12.78° C | 45% | 1008.1 hPa | 0 mm | 0.89 m/s, 257° | 141 W/m² | - |
| 1778017808 | 12.78° C | 43% | 1008.1 hPa | 0 mm | 0.89 m/s, 250° | 142 W/m² | - |
| 1778017509 | 12.78° C | 44% | 1008 hPa | 0 mm | 1.34 m/s, 249° | 155 W/m² | - |
| 1778017208 | 12.78° C | 46% | 1008 hPa | 0 mm | 1.34 m/s, 271° | 167 W/m² | - |
| 1778016909 | 12.78° C | 43% | 1008.3 hPa | 0 mm | 2.24 m/s, 245° | 174 W/m² | - |
| 1778016609 | 12.78° C | 46% | 1008.3 hPa | 0 mm | 1.34 m/s, 292° | 174 W/m² | - |
| 1778016308 | 12.78° C | 45% | 1008.4 hPa | 0 mm | 2.24 m/s, 295° | 181 W/m² | - |
| 1778016009 | 12.78° C | 44% | 1008.2 hPa | 0 mm | 2.24 m/s, 238° | 181 W/m² | - |
| 1778015708 | 12.78° C | 50% | 1008.5 hPa | 0 mm | 0.89 m/s, 261° | 176 W/m² | - |
| 1778015408 | 12.78° C | 50% | 1008.5 hPa | 0 mm | 1.34 m/s, 263° | 218 W/m² | - |
| 1778015109 | 12.78° C | 51% | 1008.5 hPa | 0 mm | 0.89 m/s, 263° | 220 W/m² | - |
| 1778014808 | 12.78° C | 48% | 1008.5 hPa | 0 mm | 0.89 m/s, 250° | 171 W/m² | - |
| 1778014508 | 12.78° C | 45% | 1008.5 hPa | 0 mm | 2.24 m/s, 245° | 153 W/m² | - |
| 1778014209 | 12.78° C | 50% | 1008.6 hPa | 0 mm | 1.34 m/s, 259° | 151 W/m² | - |
| 1778013908 | 12.78° C | 47% | 1008.7 hPa | 0 mm | 1.79 m/s, 294° | 139 W/m² | - |
| 1778013608 | 12.78° C | 48% | 1008.7 hPa | 0 mm | 2.24 m/s, 249° | 158 W/m² | - |
| 1778013308 | 12.78° C | 47% | 1008.7 hPa | 0 mm | 1.34 m/s, 270° | 195 W/m² | - |
| 1778013008 | 12.78° C | 46% | 1008.7 hPa | 0 mm | 1.79 m/s, 253° | 176 W/m² | - |
| 1778012709 | 12.78° C | 46% | 1008.7 hPa | 0 mm | 1.79 m/s, 279° | 149 W/m² | - |
| 1778012409 | 12.78° C | 45% | 1008.8 hPa | 0 mm | 2.24 m/s, 301° | 139 W/m² | - |
| 1778012108 | 12.78° C | 48% | 1008.8 hPa | 0 mm | 0.89 m/s, 287° | 139 W/m² | - |
| 1778011808 | 12.78° C | 47% | 1008.8 hPa | 0 mm | 2.24 m/s, 274° | 141 W/m² | - |
* Rain latest hour (hover to see other rain measurements)
** Current wind speed in m/s (hover to see current wind gust speed)